Time,TemperatureF,DewpointF,PressureIn,WindDirection,WindDirectionDegrees,WindSpeedMPH,WindSpeedGustMPH,Humidity,HourlyPrecipIn,Conditions,Clouds,dailyrainin,SoftwareType,DateUTC
2013-05-31 00:01:00,54.4,44.0,29.24,WSW,247,0.0,-999.0,68,0.00,,,0.00,Rainwise IP-100,2013-05-31 07:01:00,
2013-05-31 00:06:00,54.1,44.0,29.24,WSW,247,1.9,-999.0,69,0.00,,,0.00,Rainwise IP-100,2013-05-31 07:06:00,
2013-05-31 00:11:00,53.6,43.0,29.24,WSW,247,1.4,-999.0,69,0.00,,,0.00,Rainwise IP-100,2013-05-31 07:11:00,
2013-05-31 00:16:00,53.5,44.0,29.25,WSW,247,0.0,-999.0,70,0.00,,,0.00,Rainwise IP-100,2013-05-31 07:16:00,
2013-05-31 00:21:00,54.0,44.0,29.25,WSW,247,0.0,-999.0,70,0.00,,,0.00,Rainwise IP-100,2013-05-31 07:21:00,
2013-05-31 00:26:00,54.1,44.0,29.24,WSW,247,1.2,-999.0,70,0.00,,,0.00,Rainwise IP-100,2013-05-31 07:26:00,
2013-05-31 00:31:00,53.5,44.0,29.25,WSW,247,0.0,-999.0,70,0.00,,,0.00,Rainwise IP-100,2013-05-31 07:31:00,
2013-05-31 00:36:00,52.9,43.0,29.24,WSW,247,0.0,-999.0,70,0.00,,,0.00,Rainwise IP-100,2013-05-31 07:36:00,
2013-05-31 00:41:00,52.3,43.0,29.25,WSW,247,0.0,-999.0,71,0.00,,,0.00,Rainwise IP-100,2013-05-31 07:41:00,
2013-05-31 00:46:00,52.0,43.0,29.24,WSW,247,2.6,-999.0,72,0.00,,,0.00,Rainwise IP-100,2013-05-31 07:46:00,
2013-05-31 00:51:00,51.8,43.0,29.24,WSW,247,1.2,-999.0,72,0.00,,,0.00,Rainwise IP-100,2013-05-31 07:51:00,
2013-05-31 00:56:00,51.7,43.0,29.24,WSW,247,1.2,-999.0,73,0.00,,,0.00,Rainwise IP-100,2013-05-31 07:56:00,
2013-05-31 01:01:00,51.7,43.0,29.24,WSW,247,0.0,-999.0,73,0.00,,,0.00,Rainwise IP-100,2013-05-31 08:01:00,
2013-05-31 01:06:00,51.7,43.0,29.24,WSW,247,0.0,-999.0,73,0.00,,,0.00,Rainwise IP-100,2013-05-31 08:06:00,
2013-05-31 01:11:00,51.9,44.0,29.24,WSW,247,0.0,-999.0,74,0.00,,,0.00,Rainwise IP-100,2013-05-31 08:11:00,
2013-05-31 01:16:00,51.7,43.0,29.24,WSW,247,0.0,-999.0,73,0.00,,,0.00,Rainwise IP-100,2013-05-31 08:16:00,
2013-05-31 01:21:00,51.4,43.0,29.24,WSW,247,0.0,-999.0,74,0.00,,,0.00,Rainwise IP-100,2013-05-31 08:21:00,
2013-05-31 01:26:00,51.2,44.0,29.25,WSW,247,0.0,-999.0,75,0.00,,,0.00,Rainwise IP-100,2013-05-31 08:26:00,
2013-05-31 01:31:00,51.0,44.0,29.25,WSW,247,2.1,-999.0,75,0.00,,,0.00,Rainwise IP-100,2013-05-31 08:31:00,
2013-05-31 01:36:00,51.0,44.0,29.24,WSW,247,1.4,-999.0,75,0.00,,,0.00,Rainwise IP-100,2013-05-31 08:36:00,
2013-05-31 01:41:00,51.1,44.0,29.25,WSW,247,0.0,-999.0,76,0.00,,,0.00,Rainwise IP-100,2013-05-31 08:41:00,
2013-05-31 01:46:00,51.3,44.0,29.24,WSW,247,0.0,-999.0,76,0.00,,,0.00,Rainwise IP-100,2013-05-31 08:46:00,
2013-05-31 01:51:00,51.2,44.0,29.24,WSW,247,0.0,-999.0,76,0.00,,,0.00,Rainwise IP-100,2013-05-31 08:51:00,
2013-05-31 01:56:00,50.9,44.0,29.24,WSW,247,0.0,-999.0,76,0.00,,,0.00,Rainwise IP-100,2013-05-31 08:56:00,
2013-05-31 02:01:00,50.6,43.0,29.24,WSW,247,0.0,-999.0,76,0.00,,,0.00,Rainwise IP-100,2013-05-31 09:01:00,
2013-05-31 02:06:00,50.3,43.0,29.24,WSW,247,0.0,-999.0,77,0.00,,,0.00,Rainwise IP-100,2013-05-31 09:06:00,
2013-05-31 02:11:00,50.1,43.0,29.24,WSW,247,1.4,-999.0,77,0.00,,,0.00,Rainwise IP-100,2013-05-31 09:11:00,
2013-05-31 02:16:00,50.0,43.0,29.24,WSW,247,1.6,-999.0,78,0.00,,,0.00,Rainwise IP-100,2013-05-31 09:16:00,
2013-05-31 02:21:00,50.1,43.0,29.24,WSW,247,0.0,-999.0,79,0.00,,,0.00,Rainwise IP-100,2013-05-31 09:21:00,
2013-05-31 02:26:00,50.2,43.0,29.24,WSW,247,0.0,-999.0,79,0.00,,,0.00,Rainwise IP-100,2013-05-31 09:26:00,
2013-05-31 02:31:00,50.0,43.0,29.24,WSW,247,1.6,-999.0,78,0.00,,,0.00,Rainwise IP-100,2013-05-31 09:31:00,
2013-05-31 02:36:00,49.8,43.0,29.24,WSW,247,0.0,-999.0,78,0.00,,,0.00,Rainwise IP-100,2013-05-31 09:36:00,
2013-05-31 02:41:00,49.7,43.0,29.24,East,90,1.6,-999.0,79,0.00,,,0.00,Rainwise IP-100,2013-05-31 09:41:00,
2013-05-31 02:46:00,49.9,44.0,29.24,East,90,0.0,-999.0,80,0.00,,,0.00,Rainwise IP-100,2013-05-31 09:46:00,
2013-05-31 02:51:00,49.9,44.0,29.24,East,90,0.0,-999.0,80,0.00,,,0.00,Rainwise IP-100,2013-05-31 09:51:00,
2013-05-31 02:56:00,49.7,44.0,29.24,East,90,0.0,-999.0,80,0.00,,,0.00,Rainwise IP-100,2013-05-31 09:56:00,
2013-05-31 03:01:00,49.6,44.0,29.24,East,90,0.0,-999.0,81,0.00,,,0.00,Rainwise IP-100,2013-05-31 10:01:00,
2013-05-31 03:06:00,49.8,45.0,29.24,East,90,0.0,-999.0,82,0.00,,,0.00,Rainwise IP-100,2013-05-31 10:06:00,
2013-05-31 03:11:00,49.8,45.0,29.25,WSW,247,0.0,-999.0,82,0.00,,,0.00,Rainwise IP-100,2013-05-31 10:11:00,
2013-05-31 03:16:00,49.5,44.0,29.25,WSW,247,0.0,-999.0,81,0.00,,,0.00,Rainwise IP-100,2013-05-31 10:16:00,
2013-05-31 03:21:00,49.1,43.0,29.25,WSW,247,0.0,-999.0,81,0.00,,,0.00,Rainwise IP-100,2013-05-31 10:21:00,
2013-05-31 03:26:00,48.6,44.0,29.24,WSW,247,0.0,-999.0,82,0.00,,,0.00,Rainwise IP-100,2013-05-31 10:26:00,
2013-05-31 03:31:00,48.1,43.0,29.25,WSW,247,1.4,-999.0,82,0.00,,,0.00,Rainwise IP-100,2013-05-31 10:31:00,
2013-05-31 03:36:00,47.7,42.0,29.25,WSW,247,0.0,-999.0,83,0.00,,,0.00,Rainwise IP-100,2013-05-31 10:36:00,
2013-05-31 03:41:00,47.6,43.0,29.24,WSW,247,1.6,-999.0,84,0.00,,,0.00,Rainwise IP-100,2013-05-31 10:41:00,
2013-05-31 03:46:00,47.9,44.0,29.25,WSW,247,0.0,-999.0,85,0.00,,,0.00,Rainwise IP-100,2013-05-31 10:46:00,
2013-05-31 03:51:00,48.0,44.0,29.24,WSW,247,0.0,-999.0,84,0.00,,,0.00,Rainwise IP-100,2013-05-31 10:51:00,
2013-05-31 03:56:00,47.7,42.0,29.25,WSW,247,1.9,-999.0,83,0.00,,,0.00,Rainwise IP-100,2013-05-31 10:56:00,
2013-05-31 04:01:00,47.3,42.0,29.25,WSW,247,1.4,-999.0,83,0.00,,,0.00,Rainwise IP-100,2013-05-31 11:01:00,
2013-05-31 04:06:00,47.5,43.0,29.25,WSW,247,0.0,-999.0,84,0.00,,,0.00,Rainwise IP-100,2013-05-31 11:06:00,
2013-05-31 04:11:00,48.0,44.0,29.25,WSW,247,0.0,-999.0,85,0.00,,,0.00,Rainwise IP-100,2013-05-31 11:11:00,
2013-05-31 04:16:00,48.3,44.0,29.25,WSW,247,0.0,-999.0,86,0.00,,,0.00,Rainwise IP-100,2013-05-31 11:16:00,
2013-05-31 04:21:00,48.2,44.0,29.25,SSE,157,0.0,-999.0,85,0.00,,,0.00,Rainwise IP-100,2013-05-31 11:21:00,
2013-05-31 04:26:00,47.7,43.0,29.25,SSE,157,0.0,-999.0,85,0.00,,,0.00,Rainwise IP-100,2013-05-31 11:26:00,
2013-05-31 04:31:00,47.5,43.0,29.25,WSW,247,1.4,-999.0,85,0.00,,,0.00,Rainwise IP-100,2013-05-31 11:31:00,
2013-05-31 04:36:00,47.4,43.0,29.25,WSW,247,0.0,-999.0,85,0.00,,,0.00,Rainwise IP-100,2013-05-31 11:36:00,
2013-05-31 04:41:00,47.4,43.0,29.24,WSW,247,0.0,-999.0,85,0.00,,,0.00,Rainwise IP-100,2013-05-31 11:41:00,
2013-05-31 04:46:00,47.5,43.0,29.24,WSW,247,1.4,-999.0,85,0.00,,,0.00,Rainwise IP-100,2013-05-31 11:46:00,
2013-05-31 04:51:00,47.5,43.0,29.25,WSW,247,0.0,-999.0,85,0.00,,,0.00,Rainwise IP-100,2013-05-31 11:51:00,
2013-05-31 04:56:00,47.4,43.0,29.25,WSW,247,0.0,-999.0,85,0.00,,,0.00,Rainwise IP-100,2013-05-31 11:56:00,
2013-05-31 05:01:00,47.1,42.0,29.24,WSW,247,2.3,-999.0,85,0.00,,,0.00,Rainwise IP-100,2013-05-31 12:01:00,
2013-05-31 05:06:00,46.8,43.0,29.24,WSW,247,0.0,-999.0,86,0.00,,,0.00,Rainwise IP-100,2013-05-31 12:06:00,
2013-05-31 05:11:00,46.8,43.0,29.25,WSW,247,0.0,-999.0,86,0.00,,,0.00,Rainwise IP-100,2013-05-31 12:11:00,
2013-05-31 05:16:00,47.1,43.0,29.25,WSW,247,1.6,-999.0,87,0.00,,,0.00,Rainwise IP-100,2013-05-31 12:16:00,
2013-05-31 05:21:00,46.9,43.0,29.25,WSW,247,0.0,-999.0,87,0.00,,,0.00,Rainwise IP-100,2013-05-31 12:21:00,
2013-05-31 05:26:00,46.5,43.0,29.24,WSW,247,1.6,-999.0,87,0.00,,,0.00,Rainwise IP-100,2013-05-31 12:26:00,
2013-05-31 05:31:00,46.4,42.0,29.25,WSW,247,2.1,-999.0,87,0.00,,,0.00,Rainwise IP-100,2013-05-31 12:31:00,
2013-05-31 05:36:00,46.1,42.0,29.25,WSW,247,0.0,-999.0,87,0.00,,,0.00,Rainwise IP-100,2013-05-31 12:36:00,
2013-05-31 05:41:00,46.0,42.0,29.25,WSW,247,1.4,-999.0,88,0.00,,,0.00,Rainwise IP-100,2013-05-31 12:41:00,
2013-05-31 05:46:00,46.2,42.0,29.25,WSW,247,0.0,-999.0,88,0.00,,,0.00,Rainwise IP-100,2013-05-31 12:46:00,
2013-05-31 05:51:00,46.1,42.0,29.26,WSW,247,0.0,-999.0,88,0.00,,,0.00,Rainwise IP-100,2013-05-31 12:51:00,
2013-05-31 05:56:00,45.8,42.0,29.25,WSW,247,1.4,-999.0,88,0.00,,,0.00,Rainwise IP-100,2013-05-31 12:56:00,
2013-05-31 06:01:00,45.7,42.0,29.26,WSW,247,1.2,-999.0,88,0.00,,,0.00,Rainwise IP-100,2013-05-31 13:01:00,
2013-05-31 06:06:00,45.9,43.0,29.26,WSW,247,0.0,-999.0,89,0.00,,,0.00,Rainwise IP-100,2013-05-31 13:06:00,
2013-05-31 06:11:00,46.2,43.0,29.26,WSW,247,0.0,-999.0,89,0.00,,,0.00,Rainwise IP-100,2013-05-31 13:11:00,
2013-05-31 06:16:00,46.4,42.0,29.26,WSW,247,0.0,-999.0,88,0.00,,,0.00,Rainwise IP-100,2013-05-31 13:16:00,
2013-05-31 06:21:00,46.7,43.0,29.26,WSW,247,0.0,-999.0,88,0.00,,,0.00,Rainwise IP-100,2013-05-31 13:21:00,
2013-05-31 06:26:00,46.6,43.0,29.26,WSW,247,0.0,-999.0,88,0.00,,,0.00,Rainwise IP-100,2013-05-31 13:26:00,
2013-05-31 06:31:00,46.2,42.0,29.27,WSW,247,0.0,-999.0,88,0.00,,,0.00,Rainwise IP-100,2013-05-31 13:31:00,
2013-05-31 06:36:00,46.4,43.0,29.26,WSW,247,0.0,-999.0,89,0.00,,,0.00,Rainwise IP-100,2013-05-31 13:36:00,
2013-05-31 06:41:00,46.6,43.0,29.27,WSW,247,0.0,-999.0,89,0.00,,,0.00,Rainwise IP-100,2013-05-31 13:41:00,
2013-05-31 06:46:00,46.9,43.0,29.27,WSW,247,1.6,-999.0,89,0.00,,,0.00,Rainwise IP-100,2013-05-31 13:46:00,
2013-05-31 06:51:00,47.5,44.0,29.27,WSW,247,0.0,-999.0,89,0.00,,,0.00,Rainwise IP-100,2013-05-31 13:51:00,
2013-05-31 06:56:00,48.6,46.0,29.27,WSW,247,0.0,-999.0,88,0.00,,,0.00,Rainwise IP-100,2013-05-31 13:56:00,
2013-05-31 07:01:00,49.9,46.0,29.27,WSW,247,0.0,-999.0,87,0.00,,,0.00,Rainwise IP-100,2013-05-31 14:01:00,
2013-05-31 07:06:00,50.7,46.0,29.27,WSW,247,0.0,-999.0,85,0.00,,,0.00,Rainwise IP-100,2013-05-31 14:06:00,
2013-05-31 07:11:00,51.5,47.5,29.27,WSW,247,0.0,-999.0,85,0.00,,,0.00,Rainwise IP-100,2013-05-31 14:11:00,
2013-05-31 07:16:00,53.2,47.5,29.27,ESE,112,0.0,-999.0,83,0.00,,,0.00,Rainwise IP-100,2013-05-31 14:16:00,
2013-05-31 07:21:00,54.7,49.0,29.27,ESE,112,0.0,-999.0,81,0.00,,,0.00,Rainwise IP-100,2013-05-31 14:21:00,
2013-05-31 07:26:00,55.4,49.0,29.27,ESE,112,2.1,-999.0,79,0.00,,,0.00,Rainwise IP-100,2013-05-31 14:26:00,
2013-05-31 07:31:00,56.3,49.0,29.27,ESE,112,0.0,-999.0,76,0.00,,,0.00,Rainwise IP-100,2013-05-31 14:31:00,
2013-05-31 07:36:00,57.2,49.0,29.27,SSE,157,1.2,-999.0,74,0.00,,,0.00,Rainwise IP-100,2013-05-31 14:36:00,
2013-05-31 07:41:00,58.1,48.0,29.27,SSE,157,0.0,-999.0,70,0.00,,,0.00,Rainwise IP-100,2013-05-31 14:41:00,
2013-05-31 07:46:00,58.9,48.0,29.27,ESE,112,2.1,-999.0,67,0.00,,,0.00,Rainwise IP-100,2013-05-31 14:46:00,
2013-05-31 07:51:00,59.6,47.5,29.27,ESE,112,2.6,-999.0,65,0.00,,,0.00,Rainwise IP-100,2013-05-31 14:51:00,
2013-05-31 07:56:00,60.1,47.5,29.28,ESE,112,1.6,-999.0,63,0.00,,,0.00,Rainwise IP-100,2013-05-31 14:56:00,
2013-05-31 08:01:00,60.8,47.5,29.27,ENE,67,3.0,-999.0,62,0.00,,,0.00,Rainwise IP-100,2013-05-31 15:01:00,
2013-05-31 08:06:00,61.9,48.0,29.27,SSE,157,1.4,-999.0,61,0.00,,,0.00,Rainwise IP-100,2013-05-31 15:06:00,
2013-05-31 08:11:00,62.8,48.0,29.27,SSE,157,1.9,-999.0,59,0.00,,,0.00,Rainwise IP-100,2013-05-31 15:11:00,
2013-05-31 08:16:00,63.7,48.0,29.27,SSW,202,0.0,-999.0,57,0.00,,,0.00,Rainwise IP-100,2013-05-31 15:16:00,
2013-05-31 08:21:00,64.3,48.0,29.27,SSE,157,2.6,-999.0,56,0.00,,,0.00,Rainwise IP-100,2013-05-31 15:21:00,
2013-05-31 08:26:00,65.0,48.0,29.27,SSE,157,0.0,-999.0,55,0.00,,,0.00,Rainwise IP-100,2013-05-31 15:26:00,
2013-05-31 08:31:00,66.2,49.0,29.27,ESE,112,2.1,-999.0,54,0.00,,,0.00,Rainwise IP-100,2013-05-31 15:31:00,
2013-05-31 08:36:00,67.0,50.0,29.27,ESE,112,1.4,-999.0,53,0.00,,,0.00,Rainwise IP-100,2013-05-31 15:36:00,
2013-05-31 08:41:00,67.8,49.0,29.28,SSE,157,1.6,-999.0,51,0.00,,,0.00,Rainwise IP-100,2013-05-31 15:41:00,
2013-05-31 08:46:00,68.7,49.0,29.27,ESE,112,1.4,-999.0,50,0.00,,,0.00,Rainwise IP-100,2013-05-31 15:46:00,
2013-05-31 08:51:00,69.6,49.0,29.27,SSE,157,1.4,-999.0,48,0.00,,,0.00,Rainwise IP-100,2013-05-31 15:51:00,
2013-05-31 08:56:00,70.6,49.0,29.27,SSE,157,0.0,-999.0,46,0.00,,,0.00,Rainwise IP-100,2013-05-31 15:56:00,
2013-05-31 09:01:00,71.6,48.0,29.27,SSE,157,2.8,-999.0,43,0.00,,,0.00,Rainwise IP-100,2013-05-31 16:01:00,
2013-05-31 09:06:00,72.7,48.0,29.27,ESE,112,0.0,-999.0,42,0.00,,,0.00,Rainwise IP-100,2013-05-31 16:06:00,
2013-05-31 09:11:00,74.0,48.0,29.27,East,90,2.1,-999.0,40,0.00,,,0.00,Rainwise IP-100,2013-05-31 16:11:00,
2013-05-31 09:16:00,74.9,47.5,29.27,ESE,112,1.6,-999.0,38,0.00,,,0.00,Rainwise IP-100,2013-05-31 16:16:00,
2013-05-31 09:21:00,75.5,47.0,29.27,ESE,112,1.2,-999.0,36,0.00,,,0.00,Rainwise IP-100,2013-05-31 16:21:00,
2013-05-31 09:26:00,76.8,46.0,29.27,North,360,3.5,-999.0,33,0.00,,,0.00,Rainwise IP-100,2013-05-31 16:26:00,
2013-05-31 09:31:00,78.7,45.0,29.27,NNW,337,2.1,-999.0,30,0.00,,,0.00,Rainwise IP-100,2013-05-31 16:31:00,
2013-05-31 09:36:00,80.0,44.0,29.27,NNW,337,1.6,-999.0,28,0.00,,,0.00,Rainwise IP-100,2013-05-31 16:36:00,
2013-05-31 09:41:00,80.7,44.0,29.26,West,270,0.0,-999.0,27,0.00,,,0.00,Rainwise IP-100,2013-05-31 16:41:00,
2013-05-31 09:46:00,81.2,43.0,29.26,WSW,247,0.0,-999.0,26,0.00,,,0.00,Rainwise IP-100,2013-05-31 16:46:00,
2013-05-31 09:51:00,81.1,43.0,29.27,NNW,337,5.1,-999.0,26,0.00,,,0.00,Rainwise IP-100,2013-05-31 16:51:00,
2013-05-31 09:56:00,81.3,43.0,29.26,WNW,292,1.4,-999.0,26,0.00,,,0.00,Rainwise IP-100,2013-05-31 16:56:00,
2013-05-31 10:01:00,82.2,44.0,29.26,NNE,22,0.0,-999.0,26,0.00,,,0.00,Rainwise IP-100,2013-05-31 17:01:00,
2013-05-31 10:06:00,82.8,44.0,29.26,NNW,337,4.4,-999.0,26,0.00,,,0.00,Rainwise IP-100,2013-05-31 17:06:00,
2013-05-31 10:11:00,83.1,44.0,29.26,NNW,337,2.6,-999.0,25,0.00,,,0.00,Rainwise IP-100,2013-05-31 17:11:00,
2013-05-31 10:16:00,83.4,43.0,29.26,NNE,22,1.2,-999.0,24,0.00,,,0.00,Rainwise IP-100,2013-05-31 17:16:00,
2013-05-31 10:21:00,83.8,43.0,29.25,North,360,0.0,-999.0,24,0.00,,,0.00,Rainwise IP-100,2013-05-31 17:21:00,
2013-05-31 10:26:00,84.2,44.0,29.25,NNW,337,3.3,-999.0,24,0.00,,,0.00,Rainwise IP-100,2013-05-31 17:26:00,
2013-05-31 10:31:00,84.5,44.0,29.26,North,360,2.6,-999.0,24,0.00,,,0.00,Rainwise IP-100,2013-05-31 17:31:00,
2013-05-31 10:36:00,84.9,43.0,29.25,NNW,337,0.0,-999.0,23,0.00,,,0.00,Rainwise IP-100,2013-05-31 17:36:00,
2013-05-31 10:41:00,85.2,43.0,29.25,WNW,292,1.2,-999.0,23,0.00,,,0.00,Rainwise IP-100,2013-05-31 17:41:00,
2013-05-31 10:46:00,85.5,43.0,29.25,North,360,1.2,-999.0,23,0.00,,,0.00,Rainwise IP-100,2013-05-31 17:46:00,
2013-05-31 10:51:00,85.8,42.0,29.25,NNW,337,2.3,-999.0,22,0.00,,,0.00,Rainwise IP-100,2013-05-31 17:51:00,
2013-05-31 10:56:00,86.2,41.0,29.25,NNE,22,0.0,-999.0,21,0.00,,,0.00,Rainwise IP-100,2013-05-31 17:56:00,
2013-05-31 11:01:00,87.0,42.0,29.25,North,360,7.5,-999.0,21,0.00,,,0.00,Rainwise IP-100,2013-05-31 18:01:00,
2013-05-31 11:06:00,87.2,40.0,29.25,SW,225,1.6,-999.0,19,0.00,,,0.00,Rainwise IP-100,2013-05-31 18:06:00,
2013-05-31 11:11:00,87.0,40.0,29.25,WSW,247,0.0,-999.0,19,0.00,,,0.00,Rainwise IP-100,2013-05-31 18:11:00,
2013-05-31 11:16:00,87.5,41.0,29.25,NNW,337,6.1,-999.0,20,0.00,,,0.00,Rainwise IP-100,2013-05-31 18:16:00,
2013-05-31 11:21:00,87.8,42.0,29.25,WSW,247,3.5,-999.0,20,0.00,,,0.00,Rainwise IP-100,2013-05-31 18:21:00,
2013-05-31 11:26:00,87.6,40.0,29.25,WNW,292,0.0,-999.0,19,0.00,,,0.00,Rainwise IP-100,2013-05-31 18:26:00,
2013-05-31 11:31:00,87.5,41.0,29.26,NNW,337,4.2,-999.0,20,0.00,,,0.00,Rainwise IP-100,2013-05-31 18:31:00,
2013-05-31 11:36:00,87.9,40.0,29.25,NNW,337,2.8,-999.0,19,0.00,,,0.00,Rainwise IP-100,2013-05-31 18:36:00,
2013-05-31 11:41:00,87.9,39.0,29.25,WNW,292,1.4,-999.0,18,0.00,,,0.00,Rainwise IP-100,2013-05-31 18:41:00,
2013-05-31 11:46:00,88.1,39.0,29.25,WNW,292,1.2,-999.0,18,0.00,,,0.00,Rainwise IP-100,2013-05-31 18:46:00,
2013-05-31 11:51:00,88.2,41.0,29.25,ENE,67,1.6,-999.0,19,0.00,,,0.00,Rainwise IP-100,2013-05-31 18:51:00,
2013-05-31 11:56:00,87.8,39.0,29.24,WSW,247,5.1,-999.0,18,0.00,,,0.00,Rainwise IP-100,2013-05-31 18:56:00,
2013-05-31 12:01:00,88.3,39.0,29.24,NNW,337,2.1,-999.0,18,0.00,,,0.00,Rainwise IP-100,2013-05-31 19:01:00,
2013-05-31 12:06:00,89.2,39.0,29.24,NNW,337,5.4,-999.0,17,0.00,,,0.00,Rainwise IP-100,2013-05-31 19:06:00,
2013-05-31 12:11:00,89.2,39.0,29.24,SW,225,8.4,-999.0,17,0.00,,,0.00,Rainwise IP-100,2013-05-31 19:11:00,
2013-05-31 12:16:00,88.4,37.0,29.24,WSW,247,2.6,-999.0,16,0.00,,,0.00,Rainwise IP-100,2013-05-31 19:16:00,
2013-05-31 12:21:00,88.3,38.0,29.24,WSW,247,3.7,-999.0,17,0.00,,,0.00,Rainwise IP-100,2013-05-31 19:21:00,
2013-05-31 12:26:00,88.7,38.0,29.24,WSW,247,5.6,-999.0,17,0.00,,,0.00,Rainwise IP-100,2013-05-31 19:26:00,
2013-05-31 12:31:00,88.8,40.0,29.24,NNW,337,1.4,-999.0,18,0.00,,,0.00,Rainwise IP-100,2013-05-31 19:31:00,
2013-05-31 12:36:00,89.4,39.0,29.24,NNE,22,1.6,-999.0,17,0.00,,,0.00,Rainwise IP-100,2013-05-31 19:36:00,
2013-05-31 12:41:00,90.0,38.0,29.23,NNE,22,2.8,-999.0,16,0.00,,,0.00,Rainwise IP-100,2013-05-31 19:41:00,
2013-05-31 12:46:00,90.6,38.0,29.23,WNW,292,1.2,-999.0,16,0.00,,,0.00,Rainwise IP-100,2013-05-31 19:46:00,
2013-05-31 12:51:00,91.0,39.0,29.23,WSW,247,2.3,-999.0,16,0.00,,,0.00,Rainwise IP-100,2013-05-31 19:51:00,
2013-05-31 12:56:00,91.1,39.0,29.23,WSW,247,3.5,-999.0,16,0.00,,,0.00,Rainwise IP-100,2013-05-31 19:56:00,
2013-05-31 13:01:00,91.0,39.0,29.23,WNW,292,3.0,-999.0,16,0.00,,,0.00,Rainwise IP-100,2013-05-31 20:01:00,
2013-05-31 13:06:00,91.2,37.0,29.23,SSW,202,0.0,-999.0,15,0.00,,,0.00,Rainwise IP-100,2013-05-31 20:06:00,
2013-05-31 13:11:00,91.2,37.0,29.23,NNW,337,4.7,-999.0,15,0.00,,,0.00,Rainwise IP-100,2013-05-31 20:11:00,
2013-05-31 13:16:00,91.4,37.0,29.22,WNW,292,3.0,-999.0,15,0.00,,,0.00,Rainwise IP-100,2013-05-31 20:16:00,
2013-05-31 13:21:00,91.7,38.0,29.23,WSW,247,0.0,-999.0,15,0.00,,,0.00,Rainwise IP-100,2013-05-31 20:21:00,
2013-05-31 13:26:00,91.7,38.0,29.22,NNW,337,4.9,-999.0,15,0.00,,,0.00,Rainwise IP-100,2013-05-31 20:26:00,
2013-05-31 13:31:00,91.9,36.0,29.22,NNE,22,2.8,-999.0,14,0.00,,,0.00,Rainwise IP-100,2013-05-31 20:31:00,
2013-05-31 13:36:00,92.2,35.0,29.22,NNE,22,3.7,-999.0,13,0.00,,,0.00,Rainwise IP-100,2013-05-31 20:36:00,
2013-05-31 13:41:00,92.2,35.0,29.22,SSW,202,4.4,-999.0,13,0.00,,,0.00,Rainwise IP-100,2013-05-31 20:41:00,
2013-05-31 13:46:00,92.1,35.0,29.22,WNW,292,1.4,-999.0,13,0.00,,,0.00,Rainwise IP-100,2013-05-31 20:46:00,
2013-05-31 13:51:00,92.0,35.0,29.21,WSW,247,0.0,-999.0,13,0.00,,,0.00,Rainwise IP-100,2013-05-31 20:51:00,
2013-05-31 13:56:00,92.4,32.0,29.21,NNE,22,2.1,-999.0,12,0.00,,,0.00,Rainwise IP-100,2013-05-31 20:56:00,
2013-05-31 14:01:00,93.3,33.0,29.21,North,360,5.8,-999.0,12,0.00,,,0.00,Rainwise IP-100,2013-05-31 21:01:00,
2013-05-31 14:06:00,93.3,31.0,29.20,ENE,67,0.0,-999.0,11,0.00,,,0.00,Rainwise IP-100,2013-05-31 21:06:00,
2013-05-31 14:11:00,93.5,33.0,29.21,WSW,247,2.6,-999.0,12,0.00,,,0.00,Rainwise IP-100,2013-05-31 21:11:00,
2013-05-31 14:16:00,94.1,33.0,29.20,WSW,247,3.0,-999.0,12,0.00,,,0.00,Rainwise IP-100,2013-05-31 21:16:00,
2013-05-31 14:21:00,94.2,33.0,29.21,NNW,337,0.0,-999.0,12,0.00,,,0.00,Rainwise IP-100,2013-05-31 21:21:00,
2013-05-31 14:26:00,94.3,32.0,29.20,WSW,247,6.1,-999.0,11,0.00,,,0.00,Rainwise IP-100,2013-05-31 21:26:00,
2013-05-31 14:31:00,94.3,35.0,29.20,WSW,247,4.4,-999.0,12,0.00,,,0.00,Rainwise IP-100,2013-05-31 21:31:00,
2013-05-31 14:36:00,94.5,35.0,29.20,WSW,247,4.2,-999.0,12,0.00,,,0.00,Rainwise IP-100,2013-05-31 21:36:00,
2013-05-31 14:41:00,94.8,32.0,29.20,NW,315,0.0,-999.0,11,0.00,,,0.00,Rainwise IP-100,2013-05-31 21:41:00,
2013-05-31 14:46:00,95.1,31.0,29.20,West,270,4.4,-999.0,10,0.00,,,0.00,Rainwise IP-100,2013-05-31 21:46:00,
2013-05-31 14:51:00,95.2,31.0,29.20,West,270,5.8,-999.0,10,0.00,,,0.00,Rainwise IP-100,2013-05-31 21:51:00,
2013-05-31 14:56:00,95.0,28.0,29.19,SW,225,1.6,-999.0,9,0.00,,,0.00,Rainwise IP-100,2013-05-31 21:56:00,
2013-05-31 15:01:00,94.9,28.0,29.19,NNW,337,0.0,-999.0,9,0.00,,,0.00,Rainwise IP-100,2013-05-31 22:01:00,
2013-05-31 15:06:00,95.5,28.0,29.19,SW,225,5.1,-999.0,9,0.00,,,0.00,Rainwise IP-100,2013-05-31 22:06:00,
2013-05-31 15:11:00,96.1,28.0,29.19,NNW,337,0.0,-999.0,9,0.00,,,0.00,Rainwise IP-100,2013-05-31 22:11:00,
2013-05-31 15:16:00,96.3,29.0,29.18,NNW,337,2.3,-999.0,9,0.00,,,0.00,Rainwise IP-100,2013-05-31 22:16:00,
2013-05-31 15:21:00,96.8,29.0,29.19,NNE,22,4.2,-999.0,9,0.00,,,0.00,Rainwise IP-100,2013-05-31 22:21:00,
2013-05-31 15:26:00,97.2,26.0,29.19,North,360,2.3,-999.0,8,0.00,,,0.00,Rainwise IP-100,2013-05-31 22:26:00,
2013-05-31 15:31:00,96.8,26.0,29.18,WSW,247,2.6,-999.0,8,0.00,,,0.00,Rainwise IP-100,2013-05-31 22:31:00,
2013-05-31 15:36:00,96.6,26.0,29.18,WNW,292,2.8,-999.0,8,0.00,,,0.00,Rainwise IP-100,2013-05-31 22:36:00,
2013-05-31 15:41:00,96.7,26.0,29.18,SSW,202,3.5,-999.0,8,0.00,,,0.00,Rainwise IP-100,2013-05-31 22:41:00,
2013-05-31 15:46:00,96.7,26.0,29.18,North,360,4.9,-999.0,8,0.00,,,0.00,Rainwise IP-100,2013-05-31 22:46:00,
2013-05-31 15:51:00,96.7,26.0,29.18,NNW,337,2.1,-999.0,8,0.00,,,0.00,Rainwise IP-100,2013-05-31 22:51:00,
2013-05-31 15:56:00,96.7,26.0,29.18,ENE,67,2.1,-999.0,8,0.00,,,0.00,Rainwise IP-100,2013-05-31 22:56:00,
2013-05-31 16:01:00,96.3,26.0,29.18,West,270,4.9,-999.0,8,0.00,,,0.00,Rainwise IP-100,2013-05-31 23:01:00,
2013-05-31 16:06:00,96.1,26.0,29.17,NNW,337,6.5,-999.0,8,0.00,,,0.00,Rainwise IP-100,2013-05-31 23:06:00,
2013-05-31 16:11:00,96.6,26.0,29.17,NNW,337,3.0,-999.0,8,0.00,,,0.00,Rainwise IP-100,2013-05-31 23:11:00,
2013-05-31 16:16:00,97.2,26.0,29.17,NNW,337,2.8,-999.0,8,0.00,,,0.00,Rainwise IP-100,2013-05-31 23:16:00,
2013-05-31 16:21:00,97.5,26.0,29.17,WSW,247,4.2,-999.0,8,0.00,,,0.00,Rainwise IP-100,2013-05-31 23:21:00,
2013-05-31 16:26:00,97.7,26.0,29.17,WNW,292,2.6,-999.0,8,0.00,,,0.00,Rainwise IP-100,2013-05-31 23:26:00,
2013-05-31 16:31:00,97.3,26.0,29.17,NNE,22,1.9,-999.0,8,0.00,,,0.00,Rainwise IP-100,2013-05-31 23:31:00,
2013-05-31 16:36:00,96.9,26.0,29.17,North,360,3.0,-999.0,8,0.00,,,0.00,Rainwise IP-100,2013-05-31 23:36:00,
2013-05-31 16:41:00,97.5,26.0,29.17,WSW,247,3.5,-999.0,8,0.00,,,0.00,Rainwise IP-100,2013-05-31 23:41:00,
2013-05-31 16:46:00,97.8,26.0,29.17,WSW,247,1.4,-999.0,8,0.00,,,0.00,Rainwise IP-100,2013-05-31 23:46:00,
2013-05-31 16:51:00,97.8,26.0,29.16,WSW,247,0.0,-999.0,8,0.00,,,0.00,Rainwise IP-100,2013-05-31 23:51:00,
2013-05-31 16:56:00,97.6,26.0,29.16,NNW,337,3.0,-999.0,8,0.00,,,0.00,Rainwise IP-100,2013-05-31 23:56:00,
2013-05-31 17:01:00,97.3,24.0,29.16,NNW,337,0.0,-999.0,7,0.00,,,0.00,Rainwise IP-100,2013-06-01 00:01:00,
2013-05-31 17:06:00,97.7,24.0,29.16,NNW,337,4.0,-999.0,7,0.00,,,0.00,Rainwise IP-100,2013-06-01 00:06:00,
2013-05-31 17:11:00,98.3,28.0,29.16,WNW,292,3.7,-999.0,8,0.00,,,0.00,Rainwise IP-100,2013-06-01 00:11:00,
2013-05-31 17:16:00,97.9,28.0,29.16,NNW,337,2.1,-999.0,8,0.00,,,0.00,Rainwise IP-100,2013-06-01 00:16:00,
2013-05-31 17:21:00,97.1,26.0,29.16,WSW,247,2.1,-999.0,8,0.00,,,0.00,Rainwise IP-100,2013-06-01 00:21:00,
2013-05-31 17:26:00,96.7,26.0,29.16,North,360,3.0,-999.0,8,0.00,,,0.00,Rainwise IP-100,2013-06-01 00:26:00,
2013-05-31 17:31:00,96.9,26.0,29.16,WSW,247,1.4,-999.0,8,0.00,,,0.00,Rainwise IP-100,2013-06-01 00:31:00,
2013-05-31 17:36:00,97.0,26.0,29.16,West,270,4.0,-999.0,8,0.00,,,0.00,Rainwise IP-100,2013-06-01 00:36:00,
2013-05-31 17:41:00,96.6,26.0,29.16,WSW,247,3.3,-999.0,8,0.00,,,0.00,Rainwise IP-100,2013-06-01 00:41:00,
2013-05-31 17:46:00,96.2,26.0,29.16,NNW,337,2.1,-999.0,8,0.00,,,0.00,Rainwise IP-100,2013-06-01 00:46:00,
2013-05-31 17:51:00,96.0,28.0,29.16,WSW,247,0.0,-999.0,9,0.00,,,0.00,Rainwise IP-100,2013-06-01 00:51:00,
2013-05-31 17:56:00,96.2,28.0,29.15,NNW,337,1.9,-999.0,9,0.00,,,0.00,Rainwise IP-100,2013-06-01 00:56:00,
2013-05-31 18:01:00,96.7,29.0,29.15,WSW,247,4.2,-999.0,9,0.00,,,0.00,Rainwise IP-100,2013-06-01 01:01:00,
2013-05-31 18:06:00,96.9,29.0,29.15,NNW,337,0.0,-999.0,9,0.00,,,0.00,Rainwise IP-100,2013-06-01 01:06:00,
2013-05-31 18:11:00,97.2,32.0,29.15,NNW,337,2.3,-999.0,10,0.00,,,0.00,Rainwise IP-100,2013-06-01 01:11:00,
2013-05-31 18:16:00,97.4,32.0,29.15,NNW,337,3.0,-999.0,10,0.00,,,0.00,Rainwise IP-100,2013-06-01 01:16:00,
2013-05-31 18:21:00,97.4,29.0,29.15,NNW,337,1.6,-999.0,9,0.00,,,0.00,Rainwise IP-100,2013-06-01 01:21:00,
2013-05-31 18:26:00,97.5,29.0,29.15,NNW,337,1.6,-999.0,9,0.00,,,0.00,Rainwise IP-100,2013-06-01 01:26:00,
2013-05-31 18:31:00,97.4,29.0,29.15,NNW,337,0.0,-999.0,9,0.00,,,0.00,Rainwise IP-100,2013-06-01 01:31:00,
2013-05-31 18:36:00,97.3,32.0,29.15,NNW,337,0.0,-999.0,10,0.00,,,0.00,Rainwise IP-100,2013-06-01 01:36:00,
2013-05-31 18:41:00,96.8,33.0,29.15,WSW,247,6.1,-999.0,11,0.00,,,0.00,Rainwise IP-100,2013-06-01 01:41:00,
2013-05-31 18:46:00,95.5,37.0,29.15,WSW,247,0.0,-999.0,13,0.00,,,0.00,Rainwise IP-100,2013-06-01 01:46:00,
2013-05-31 18:51:00,94.5,41.0,29.15,WSW,247,0.0,-999.0,16,0.00,,,0.00,Rainwise IP-100,2013-06-01 01:51:00,
2013-05-31 18:56:00,94.0,42.0,29.16,WNW,292,3.5,-999.0,17,0.00,,,0.00,Rainwise IP-100,2013-06-01 01:56:00,
2013-05-31 19:01:00,93.1,43.0,29.15,SW,225,4.4,-999.0,18,0.00,,,0.00,Rainwise IP-100,2013-06-01 02:01:00,
2013-05-31 19:06:00,92.1,45.0,29.16,WSW,247,4.4,-999.0,20,0.00,,,0.00,Rainwise IP-100,2013-06-01 02:06:00,
2013-05-31 19:11:00,91.0,46.0,29.16,WSW,247,2.8,-999.0,21,0.00,,,0.00,Rainwise IP-100,2013-06-01 02:11:00,
2013-05-31 19:16:00,89.9,46.0,29.16,WSW,247,2.8,-999.0,22,0.00,,,0.00,Rainwise IP-100,2013-06-01 02:16:00,
2013-05-31 19:21:00,88.8,47.0,29.16,West,270,2.8,-999.0,23,0.00,,,0.00,Rainwise IP-100,2013-06-01 02:21:00,
2013-05-31 19:26:00,88.0,47.0,29.16,West,270,1.4,-999.0,24,0.00,,,0.00,Rainwise IP-100,2013-06-01 02:26:00,
2013-05-31 19:31:00,87.2,47.5,29.15,WSW,247,3.0,-999.0,25,0.00,,,0.00,Rainwise IP-100,2013-06-01 02:31:00,
2013-05-31 19:36:00,86.4,47.5,29.16,WSW,247,2.3,-999.0,26,0.00,,,0.00,Rainwise IP-100,2013-06-01 02:36:00,
2013-05-31 19:41:00,85.8,47.0,29.16,WSW,247,1.9,-999.0,26,0.00,,,0.00,Rainwise IP-100,2013-06-01 02:41:00,
2013-05-31 19:46:00,85.2,47.0,29.16,WNW,292,2.3,-999.0,26,0.00,,,0.00,Rainwise IP-100,2013-06-01 02:46:00,
2013-05-31 19:51:00,84.8,47.0,29.16,WNW,292,0.0,-999.0,27,0.00,,,0.00,Rainwise IP-100,2013-06-01 02:51:00,
2013-05-31 19:56:00,83.9,47.5,29.16,NNW,337,0.0,-999.0,28,0.00,,,0.00,Rainwise IP-100,2013-06-01 02:56:00,
2013-05-31 20:01:00,83.0,47.5,29.16,SW,225,1.4,-999.0,29,0.00,,,0.00,Rainwise IP-100,2013-06-01 03:01:00,
2013-05-31 20:06:00,82.2,47.5,29.17,WNW,292,1.4,-999.0,30,0.00,,,0.00,Rainwise IP-100,2013-06-01 03:06:00,
2013-05-31 20:11:00,81.5,47.5,29.16,WNW,292,0.0,-999.0,30,0.00,,,0.00,Rainwise IP-100,2013-06-01 03:11:00,
2013-05-31 20:16:00,81.4,47.5,29.16,WNW,292,0.0,-999.0,31,0.00,,,0.00,Rainwise IP-100,2013-06-01 03:16:00,
2013-05-31 20:21:00,81.2,47.5,29.17,NNW,337,0.0,-999.0,31,0.00,,,0.00,Rainwise IP-100,2013-06-01 03:21:00,
2013-05-31 20:26:00,80.6,47.5,29.16,NNW,337,0.0,-999.0,31,0.00,,,0.00,Rainwise IP-100,2013-06-01 03:26:00,
2013-05-31 20:31:00,79.8,47.5,29.17,WSW,247,1.9,-999.0,32,0.00,,,0.00,Rainwise IP-100,2013-06-01 03:31:00,
2013-05-31 20:36:00,78.5,47.5,29.17,WSW,247,2.3,-999.0,33,0.00,,,0.00,Rainwise IP-100,2013-06-01 03:36:00,
2013-05-31 20:41:00,77.1,47.0,29.17,WSW,247,2.8,-999.0,34,0.00,,,0.00,Rainwise IP-100,2013-06-01 03:41:00,
2013-05-31 20:46:00,76.0,47.0,29.17,WSW,247,2.1,-999.0,36,0.00,,,0.00,Rainwise IP-100,2013-06-01 03:46:00,
2013-05-31 20:51:00,75.1,47.5,29.17,WSW,247,2.8,-999.0,38,0.00,,,0.00,Rainwise IP-100,2013-06-01 03:51:00,
2013-05-31 20:56:00,74.7,47.5,29.17,WSW,247,0.0,-999.0,38,0.00,,,0.00,Rainwise IP-100,2013-06-01 03:56:00,
2013-05-31 21:01:00,74.4,48.0,29.17,WSW,247,0.0,-999.0,39,0.00,,,0.00,Rainwise IP-100,2013-06-01 04:01:00,
2013-05-31 21:06:00,74.0,47.5,29.17,WSW,247,0.0,-999.0,39,0.00,,,0.00,Rainwise IP-100,2013-06-01 04:06:00,
2013-05-31 21:11:00,73.2,47.5,29.17,WSW,247,0.0,-999.0,40,0.00,,,0.00,Rainwise IP-100,2013-06-01 04:11:00,
2013-05-31 21:16:00,72.3,47.5,29.18,WSW,247,0.0,-999.0,41,0.00,,,0.00,Rainwise IP-100,2013-06-01 04:16:00,
2013-05-31 21:21:00,71.6,48.0,29.18,WSW,247,1.2,-999.0,43,0.00,,,0.00,Rainwise IP-100,2013-06-01 04:21:00,
2013-05-31 21:26:00,71.2,48.0,29.18,WSW,247,2.8,-999.0,44,0.00,,,0.00,Rainwise IP-100,2013-06-01 04:26:00,
2013-05-31 21:31:00,71.1,47.5,29.18,WSW,247,1.6,-999.0,44,0.00,,,0.00,Rainwise IP-100,2013-06-01 04:31:00,
2013-05-31 21:36:00,70.9,47.5,29.18,WSW,247,0.0,-999.0,44,0.00,,,0.00,Rainwise IP-100,2013-06-01 04:36:00,
2013-05-31 21:41:00,70.5,49.0,29.18,WSW,247,0.0,-999.0,46,0.00,,,0.00,Rainwise IP-100,2013-06-01 04:41:00,
2013-05-31 21:46:00,69.7,48.0,29.18,WSW,247,0.0,-999.0,47,0.00,,,0.00,Rainwise IP-100,2013-06-01 04:46:00,
2013-05-31 21:51:00,68.5,47.5,29.19,WSW,247,1.9,-999.0,47,0.00,,,0.00,Rainwise IP-100,2013-06-01 04:51:00,
2013-05-31 21:56:00,67.7,47.5,29.19,WSW,247,0.0,-999.0,49,0.00,,,0.00,Rainwise IP-100,2013-06-01 04:56:00,
2013-05-31 22:01:00,67.3,49.0,29.19,NNW,337,0.0,-999.0,51,0.00,,,0.00,Rainwise IP-100,2013-06-01 05:01:00,
2013-05-31 22:06:00,66.8,48.0,29.19,WSW,247,3.5,-999.0,51,0.00,,,0.00,Rainwise IP-100,2013-06-01 05:06:00,
2013-05-31 22:11:00,66.3,48.0,29.19,WSW,247,0.0,-999.0,52,0.00,,,0.00,Rainwise IP-100,2013-06-01 05:11:00,
2013-05-31 22:16:00,66.1,48.0,29.20,WSW,247,0.0,-999.0,53,0.00,,,0.00,Rainwise IP-100,2013-06-01 05:16:00,
2013-05-31 22:21:00,65.7,49.0,29.20,WSW,247,0.0,-999.0,55,0.00,,,0.00,Rainwise IP-100,2013-06-01 05:21:00,
2013-05-31 22:26:00,65.5,49.0,29.20,WSW,247,0.0,-999.0,56,0.00,,,0.00,Rainwise IP-100,2013-06-01 05:26:00,
2013-05-31 22:31:00,65.4,49.0,29.20,WSW,247,1.4,-999.0,56,0.00,,,0.00,Rainwise IP-100,2013-06-01 05:31:00,
2013-05-31 22:36:00,65.3,49.0,29.20,NNW,337,0.0,-999.0,55,0.00,,,0.00,Rainwise IP-100,2013-06-01 05:36:00,
2013-05-31 22:41:00,65.5,49.0,29.19,WNW,292,0.0,-999.0,55,0.00,,,0.00,Rainwise IP-100,2013-06-01 05:41:00,
2013-05-31 22:46:00,65.6,48.0,29.19,WNW,292,2.1,-999.0,54,0.00,,,0.00,Rainwise IP-100,2013-06-01 05:46:00,
2013-05-31 22:51:00,65.5,48.0,29.19,WNW,292,0.0,-999.0,54,0.00,,,0.00,Rainwise IP-100,2013-06-01 05:51:00,
2013-05-31 22:56:00,65.3,48.0,29.20,WNW,292,0.0,-999.0,54,0.00,,,0.00,Rainwise IP-100,2013-06-01 05:56:00,
2013-05-31 23:01:00,64.9,47.5,29.19,WNW,292,0.0,-999.0,54,0.00,,,0.00,Rainwise IP-100,2013-06-01 06:01:00,
2013-05-31 23:06:00,64.4,48.0,29.19,WSW,247,0.0,-999.0,55,0.00,,,0.00,Rainwise IP-100,2013-06-01 06:06:00,
2013-05-31 23:11:00,64.1,48.0,29.19,WSW,247,0.0,-999.0,56,0.00,,,0.00,Rainwise IP-100,2013-06-01 06:11:00,
2013-05-31 23:16:00,64.1,48.0,29.19,WSW,247,0.0,-999.0,56,0.00,,,0.00,Rainwise IP-100,2013-06-01 06:16:00,
2013-05-31 23:21:00,63.9,48.0,29.19,WSW,247,0.0,-999.0,56,0.00,,,0.00,Rainwise IP-100,2013-06-01 06:21:00,
2013-05-31 23:26:00,63.4,47.5,29.19,WSW,247,0.0,-999.0,56,0.00,,,0.00,Rainwise IP-100,2013-06-01 06:26:00,
2013-05-31 23:31:00,63.1,47.5,29.19,WSW,247,0.0,-999.0,57,0.00,,,0.00,Rainwise IP-100,2013-06-01 06:31:00,
2013-05-31 23:36:00,62.8,47.5,29.19,WSW,247,0.0,-999.0,57,0.00,,,0.00,Rainwise IP-100,2013-06-01 06:36:00,
2013-05-31 23:41:00,62.4,47.5,29.19,WSW,247,0.0,-999.0,58,0.00,,,0.00,Rainwise IP-100,2013-06-01 06:41:00,
2013-05-31 23:46:00,62.1,47.5,29.19,WSW,247,0.0,-999.0,59,0.00,,,0.00,Rainwise IP-100,2013-06-01 06:46:00,
2013-05-31 23:51:00,61.7,47.5,29.20,WSW,247,1.4,-999.0,60,0.00,,,0.00,Rainwise IP-100,2013-06-01 06:51:00,
2013-05-31 23:56:00,61.4,47.5,29.19,WSW,247,0.0,-999.0,60,0.00,,,0.00,Rainwise IP-100,2013-06-01 06:56:00,